TimeCST,TemperatureF,Dew PointF,Humidity,Sea Level PressureIn,VisibilityMPH,Wind Direction,Wind SpeedMPH,Gust SpeedMPH,PrecipitationIn,Events,Conditions,WindDirDegrees,DateUTC
12:03 AM,41.0,39.2,93,29.91,0.2,Calm,Calm,-,N/A,Fog,Fog,0,2012-12-02 06:03:00
12:53 AM,41.0,39.9,96,29.92,0.2,Calm,Calm,-,N/A,Fog,Fog,0,2012-12-02 06:53:00
12:58 AM,42.8,39.2,87,29.93,1.2,Calm,Calm,-,N/A,,Mostly Cloudy,0,2012-12-02 06:58:00
1:00 AM,42.8,39.2,87,29.93,3.0,Calm,Calm,-,N/A,,Mostly Cloudy,0,2012-12-02 07:00:00
1:08 AM,39.2,39.2,100,29.93,4.0,West,4.6,-,N/A,,Scattered Clouds,270,2012-12-02 07:08:00
1:24 AM,39.2,37.4,93,29.93,1.8,Calm,Calm,-,N/A,,Clear,0,2012-12-02 07:24:00
1:27 AM,39.2,37.4,93,29.93,0.8,Calm,Calm,-,N/A,,Mist,0,2012-12-02 07:27:00
1:34 AM,37.4,37.4,100,29.92,0.2,Calm,Calm,-,N/A,Fog,Fog,0,2012-12-02 07:34:00
1:53 AM,37.9,37.0,97,29.93,0.2,Calm,Calm,-,N/A,Fog,Fog,0,2012-12-02 07:53:00
2:02 AM,39.2,37.4,93,29.93,0.2,Calm,Calm,-,N/A,Fog,Fog,0,2012-12-02 08:02:00
2:53 AM,39.9,37.9,93,29.95,0.5,South,3.5,-,N/A,Fog,Fog,170,2012-12-02 08:53:00
3:08 AM,39.2,39.2,100,29.95,0.2,Calm,Calm,-,N/A,Fog,Fog,0,2012-12-02 09:08:00
3:37 AM,39.2,39.2,100,29.95,0.2,Calm,Calm,-,N/A,Fog,Fog,0,2012-12-02 09:37:00
3:53 AM,39.9,39.0,97,29.95,0.2,Calm,Calm,-,N/A,Fog,Fog,0,2012-12-02 09:53:00
4:53 AM,39.9,39.0,97,29.96,0.2,Calm,Calm,-,N/A,Fog,Fog,0,2012-12-02 10:53:00
5:21 AM,37.4,37.4,100,29.97,0.5,Calm,Calm,-,N/A,Fog,Fog,0,2012-12-02 11:21:00
5:25 AM,39.2,37.4,93,29.97,1.0,Calm,Calm,-,N/A,,Mist,0,2012-12-02 11:25:00
5:28 AM,39.2,39.2,100,29.97,2.0,Calm,Calm,-,N/A,,Partly Cloudy,0,2012-12-02 11:28:00
5:34 AM,37.4,35.6,93,29.98,0.8,Calm,Calm,-,N/A,,Clear,0,2012-12-02 11:34:00
5:42 AM,35.6,35.6,100,29.98,0.2,Calm,Calm,-,N/A,Fog,Fog,0,2012-12-02 11:42:00
5:53 AM,37.0,35.1,93,29.98,0.2,Calm,Calm,-,N/A,Fog,Fog,0,2012-12-02 11:53:00
6:27 AM,35.6,33.8,93,29.99,0.2,Calm,Calm,-,N/A,Fog,Fog,0,2012-12-02 12:27:00
6:53 AM,37.9,36.0,93,30.00,0.2,Calm,Calm,-,N/A,Fog,Fog,0,2012-12-02 12:53:00
7:53 AM,36.0,35.1,97,30.03,0.2,Calm,Calm,-,N/A,Fog,Fog,0,2012-12-02 13:53:00
8:53 AM,39.0,37.9,96,30.04,0.2,Calm,Calm,-,N/A,Fog,Fog,0,2012-12-02 14:53:00
9:03 AM,42.8,41.0,93,30.04,1.0,Calm,Calm,-,N/A,,Mist,0,2012-12-02 15:03:00
9:05 AM,42.8,41.0,93,30.04,2.5,Calm,Calm,-,N/A,,Scattered Clouds,0,2012-12-02 15:05:00
9:12 AM,42.8,42.8,100,30.04,4.0,Calm,Calm,-,N/A,,Partly Cloudy,0,2012-12-02 15:12:00
9:25 AM,44.6,42.8,93,30.04,2.5,Calm,Calm,-,N/A,,Clear,0,2012-12-02 15:25:00
9:34 AM,44.6,42.8,93,30.04,4.0,Calm,Calm,-,N/A,,Clear,0,2012-12-02 15:34:00
9:53 AM,48.0,44.1,86,30.05,8.0,Calm,Calm,-,N/A,,Clear,0,2012-12-02 15:53:00
10:53 AM,54.0,45.0,72,30.03,10.0,Calm,Calm,-,N/A,,Clear,0,2012-12-02 16:53:00
11:53 AM,62.1,45.0,53,30.01,10.0,Calm,Calm,-,N/A,,Clear,0,2012-12-02 17:53:00
12:53 PM,64.9,45.0,48,29.99,10.0,ESE,3.5,-,N/A,,Clear,120,2012-12-02 18:53:00
1:53 PM,66.9,45.0,45,29.96,10.0,SE,6.9,-,N/A,,Clear,130,2012-12-02 19:53:00
2:53 PM,69.1,45.0,42,29.93,10.0,ESE,4.6,-,N/A,,Clear,110,2012-12-02 20:53:00
3:53 PM,64.9,46.9,52,29.92,10.0,ESE,4.6,-,N/A,,Clear,110,2012-12-02 21:53:00
4:53 PM,61.0,44.1,54,29.90,10.0,SE,6.9,-,N/A,,Clear,130,2012-12-02 22:53:00
5:53 PM,57.0,45.0,64,29.90,10.0,East,6.9,-,N/A,,Clear,80,2012-12-02 23:53:00
6:53 PM,55.0,46.9,74,29.90,10.0,East,5.8,-,N/A,,Clear,80,2012-12-03 00:53:00
7:53 PM,52.0,46.9,83,29.89,10.0,ESE,6.9,-,N/A,,Clear,120,2012-12-03 01:53:00
8:53 PM,57.9,52.0,81,29.87,10.0,SSE,6.9,-,N/A,,Clear,150,2012-12-03 02:53:00
9:53 PM,55.0,48.9,80,29.85,10.0,ESE,3.5,-,N/A,,Clear,110,2012-12-03 03:53:00
10:53 PM,57.9,48.9,72,29.83,10.0,SSE,9.2,-,N/A,,Clear,150,2012-12-03 04:53:00
11:53 PM,61.0,53.1,75,29.80,10.0,South,13.8,-,N/A,,Clear,170,2012-12-03 05:53:00